Location: Unspecified
(0.0000°N, 0.0000°E)
Time: 19:31:13
(UTC+00:00)

Vanguard 1 - Pass Details

Date: 25 April 2026
Orbit: 654 x 3817 km, 34.2° (Epoch: 18 May)

Event Time Altitude Azimuth Distance (km) Brightness Sun altitude
Rises 20:27:59 0° 273° (W) 5,802 14.9 -36.3°
Reaches altitude 10° 20:32:06 10° 284° (WNW) 5,225 14.5 -37.3°
Maximum altitude 20:45:58 30° 339° (NNW) 4,834 13.7 -40.6°
Drops below altitude 10° 21:04:40 10° 33° (NNE) 6,911 14.2 -45.1°
Sets 21:11:35 0° 44° (NE) 7,873 14.5 -46.7°
